weather.gov     
National Weather Service

Regional Weather Roundup
NWS Homepage
This page is being discontinued on March 12, 2014.
The same data is available at this site. Please update your bookmarks.
Thank you, and we apologize for the inconvenience.
Please send an email to SR-SRH.Webmaster@noaa.gov with any concerns.


Current Version
Previous Version:    01  02  03  04  05  06  07  08  09  10  11  12  13  14  15  16  17  18  19  20  21  22  23  24  25  26  27  28  29  30  
   31  32  33  34  35  36  37  38  39  40  41  42  43  44  45  46  47  48  49  50  51  52  53  54  55  56  57  58  59  60  
[Printable]
109
ASUS44 KFWD 220915
RWRTX
NORTH TEXAS HOURLY WEATHER ROUNDUP
NATIONAL WEATHER SERVICE FORT WORTH TX
400 AM CDT WED OCT 22 2014

NOTE: "FAIR" INDICATES FEW OR NO CLOUDS BELOW 12,000 FEET WITH NO
SIGNIFICANT WEATHER AND/OR OBSTRUCTIONS TO VISIBILITY.

TXZ118-119-221000-
DALLAS/FORT WORTH METROPLEX

CITY           SKY/WX    TMP DP  RH WIND       PRES   REMARKS
DFW AIRPORT    CLEAR     63  58  83 CALM      30.07R
DALLAS LOVE    CLEAR     64  59  83 SE5       30.07S
FTW MEACHAM    CLEAR     65  57  75 CALM      30.07R
DAL-EXECUTIVE  CLEAR     65  59  81 CALM      30.07R
FTW-ALLIANCE   PTCLDY    55  53  93 CALM      30.07S
FTW-NAS-JRB    CLEAR     66  59  78 VRB3      30.11S
FTW-SPINKS     CLEAR     57  55  93 CALM      30.09S
ARLINGTON      CLEAR     58  54  86 CALM      30.07S
GRAND PRAIRIE  CLEAR     64  59  83 S3        30.08S
ADDISON        CLEAR     66  62  87 E3        30.09S
MESQUITE       CLEAR     59  58  95 CALM      30.07S
LANCASTER      CLEAR     57  54  88 CALM      30.08R
$$

TXZ091>094-102>105-117-120-121-131>134-221000-
NORTH CENTRAL TEXAS

CITY           SKY/WX    TMP DP  RH WIND       PRES   REMARKS
SHRMAN/DENISON CLEAR     64  62  91 S6        30.09R
GAINESVILLE    CLEAR     58  57  94 CALM      30.10S FOG
BOWIE          CLEAR     58  56  94 SE3       30.08R
BRIDGEPORT     CLEAR     54  54 100 CALM      30.10S
DECATUR        CLEAR     65  56  74 S6        30.08S
DENTON         CLEAR     57  56  96 NW3       30.07S FOG
MCKINNEY       CLEAR     58  56  93 CALM      30.08R
GREENVILLE     CLEAR     57  55  94 CALM      30.08S
ROCKWALL       CLEAR     63  60  91 SE5       30.07S
TERRELL        CLEAR     59  57  93 N3        30.08S
WAXAHACHIE     CLEAR     58  58 100 CALM      30.09S FOG
CLEBURNE       CLEAR     63  59  88 CALM      30.09S
GRANBURY       CLEAR     57  53  87 CALM      30.09S
$$

TXZ083>090-098>101-113>116-127>130-139>142-154-155-221000-
WESTERN NORTH TEXAS

CITY           SKY/WX    TMP DP  RH WIND       PRES   REMARKS
WICHITA FALLS  CLEAR     60  54  80 VRB6      30.05S
WF-KICKAPOO    CLEAR     58  53  83 S5        30.07S
VERNON         CLEAR     57  50  77 SW3       30.07S
ABILENE        MOCLDY    64  48  56 S9        30.07F
ABILENE-DYESS  MOCLDY    64  49  57 S9        30.06S
BRECKENRIDGE   CLEAR     60  49  67 SE7       30.06F
GRAHAM         CLEAR     60  55  82 CALM      30.05F
MINERAL WELLS  CLEAR     57  54  89 E6        30.06S
STEPHENVILLE   PTCLDY    59  52  78 CALM      30.10F
COMANCHE       MOCLDY    59  53  79 SE5       30.07F
BROWNWOOD      CLOUDY    59  54  82 CALM      30.07S
COLEMAN        CLOUDY    64  51  64 CALM      30.08S
$$

TXZ143>147-156>162-174-175-221000-
CENTRAL TEXAS

CITY           SKY/WX    TMP DP  RH WIND       PRES   REMARKS
WACO           MOCLDY    61  58  90 NE3       30.07S
WACO-MCGREGOR  MOCLDY    61  52  72 CALM      30.08S
HILLSBORO      PTCLDY    64  57  78 SE3       30.08R
CORSICANA      CLEAR     62  60  93 CALM      30.08S
MEXIA          PTCLDY    62  60  92 CALM      30.06S
HEARNE         MOCLDY    59  58  96 CALM      30.06S
CAMERON        MOCLDY    61  59  92 NW3       30.06S
TEMPLE         MOCLDY    63  54  72 CALM      30.06S
KILLEEN        MOCLDY    66  55  68 SE8       30.06F
KILLEEN-SKYLRK MOCLDY    61  52  72 E3        30.05F
FORT HOOD      MOCLDY    65  58  78 NE3       30.06F
GATESVILLE     MOCLDY    61  55  82 CALM      30.09S
HAMILTON       MOCLDY    62  55  77 SE6       30.08S
LAMPASAS       MOCLDY    62  53  73 CALM      30.06S
$$

TXZ095>097-106>112-122>126-135>138-148>153-164>167-221000-
EAST TEXAS

CITY           SKY/WX    TMP DP  RH WIND       PRES   REMARKS
PARIS          CLEAR     61  54  77 E3        30.09S
SULPHUR SPRNGS CLEAR     59  58  97 CALM      30.10S FOG
MOUNT PLEASANT CLEAR     60  59  98 CALM      30.10S
MINEOLA        CLEAR     57  57 100 CALM      30.09S FOG
TYLER          CLEAR     63  59  87 CALM      30.08R
LONGVIEW       CLEAR     60  58  92 E3        30.07S
MARSHALL       CLEAR     60  57  92 CALM      30.10S
ATHENS         CLEAR     57  55  94 CALM      30.07S
PALESTINE      CLEAR     60  60 100 CALM      30.08S FOG
JACKSONVILLE   CLEAR     64  62  94 CALM      30.09S FOG
HENDERSON      CLEAR     57  57 100 CALM      30.09S
NACOGDOCHES    CLEAR     55  54  94 CALM      30.07S
LUFKIN         CLEAR     62  57  83 NE3       30.06S
$$

SUPPLEMENTAL OBSERVATIONS (CENTRAL)

CITY           SKY/WX    TMP DP  RH WIND       PRES   REMARKS
LAKE TEXOMA      N/A     64  59  82 S2          N/A
CADDO GRASSLND   N/A     57  54  88 CALM        N/A
PAT MAYSE LAKE   N/A     63  57  82 E5          N/A
ATHENS           N/A     61  59  94 NE1         N/A
LAKE LIMESTONE   N/A     59  55  88 NW2         N/A
MCGREGOR         N/A     63  57  82 S2          N/A
$$

SUPPLEMENTAL OBSERVATIONS (WEST)

CITY           SKY/WX    TMP DP  RH WIND       PRES   REMARKS
MILLERS CREEK    N/A     61  46  59 SW5         N/A
LBJ GRASSLAND    N/A     61  55  82 S1          N/A
COMANCHE         N/A     59  50  72 S3          N/A
HAMBY            N/A     64  46  52 S8          N/A
IVIE RESERVOIR   N/A     64  48  55 SE2         N/A
COLORADO BEND    N/A     63  52  67 CALM        N/A
$$

SUPPLEMENTAL OBSERVATIONS (EAST)

CITY           SKY/WX    TMP DP  RH WIND       PRES   REMARKS
CLARKSVILLE      N/A     61  57  88 SE1         N/A
TEXARKANA        N/A     54  52  94 CALM        N/A
LINDEN           N/A     57  55  94 CALM        N/A
CADDO LAKE       N/A     54  52  94 CALM        N/A
GILMER           N/A     57  55  94 CALM        N/A
HENDERSON        N/A     61  57  88 E7          N/A
LUFKIN           N/A     57  55  94 MISG        N/A
N SABINE NF      N/A     55  54  94 MISG        N/A
$$

SUPPLEMENTAL OBSERVATIONS ARE A COLLECTION OF AUTOMATED INSTRUMENTS
THAT ARE MAINTAINED BY A VARIETY OF FEDERAL AND STATE AGENCIES.
CERTAIN ELEMENTS...SUCH AS HUMIDITY VALUES AND SUSTAINED WIND
SPEEDS...MAY BE APPROXIMATED.





U.S. Dept. of Commerce
NOAA National Weather Service
1325 East West Highway
Silver Spring, MD 20910
E-mail: w-nws.webmaster@noaa.gov
Page last modified: May 16, 2007
NATIONAL WEATHER SERVICE: for Safety, for Work, for Fun - FOR LIFE